User: anonymous   Login
Location: Aula-Vintri
(58.3875°N, 22.4322°E)
Time: 10:53:47
(UTC+00:00)
Language:

Envisat - Orbit

View from above orbital plane
View from above orbital plane
View from above satellite
View from above satellite

Ground track
Ground track

The orbit data is extracted from the following two-line orbital elements,

1 27386U 02009A   19345.15581583  .00000007  00000-0  15817-4 0  9998
2 27386  98.1411 357.1302 0001330  90.6112 316.2842 14.37965402931414
Epoch (UTC): 11 December 2019 03:44:22
Eccentricity: 0.0001330
inclination: 98.1411°
perigee height: 764 km
apogee height: 766 km
right ascension of ascending node: 357.1302°
argument of perigee: 90.6112°
revolutions per day: 14.37965402
mean anomaly at epoch: 316.2842°
orbit number at epoch: 93141

The dashed part of the orbit path shows where the satellite is in the earth's shadow,  

DLR